TimeMDT,TemperatureF,Dew PointF,Humidity,Sea Level PressureIn,VisibilityMPH,Wind Direction,Wind SpeedMPH,Gust SpeedMPH,PrecipitationIn,Events,Conditions,WindDirDegrees,DateUTC
12:53 AM,50.0,41.0,71,29.58,10.0,WNW,10.4,-,N/A,,Clear,300,2013-05-30 06:53:00
1:53 AM,45.0,39.0,80,29.59,10.0,West,6.9,-,N/A,,Clear,280,2013-05-30 07:53:00
2:53 AM,45.0,39.0,80,29.57,10.0,SW,8.1,-,N/A,,Clear,220,2013-05-30 08:53:00
3:53 AM,48.0,39.9,74,29.57,10.0,WSW,12.7,-,N/A,,Clear,240,2013-05-30 09:53:00
4:53 AM,46.9,37.0,68,29.58,10.0,WSW,12.7,-,N/A,,Clear,240,2013-05-30 10:53:00
5:53 AM,48.0,37.0,66,29.57,10.0,WSW,12.7,-,N/A,,Clear,250,2013-05-30 11:53:00
6:53 AM,53.1,35.1,50,29.57,10.0,WSW,13.8,-,N/A,,Clear,240,2013-05-30 12:53:00
7:53 AM,53.1,37.9,57,29.60,10.0,SW,6.9,-,N/A,,Clear,230,2013-05-30 13:53:00
8:53 AM,60.1,36.0,41,29.60,10.0,West,8.1,-,N/A,,Clear,260,2013-05-30 14:53:00
9:53 AM,64.0,33.1,31,29.60,10.0,Variable,6.9,-,N/A,,Clear,0,2013-05-30 15:53:00
10:53 AM,66.9,30.9,26,29.58,10.0,West,9.2,17.3,N/A,,Clear,280,2013-05-30 16:53:00
11:53 AM,69.1,28.9,22,29.57,10.0,WNW,10.4,16.1,N/A,,Clear,300,2013-05-30 17:53:00
12:53 PM,72.0,25.0,17,29.55,10.0,WNW,17.3,25.3,N/A,,Partly Cloudy,300,2013-05-30 18:53:00
1:53 PM,72.0,28.0,20,29.55,10.0,West,16.1,23.0,N/A,,Partly Cloudy,260,2013-05-30 19:53:00
2:19 PM,66.2,26.6,23,29.68,10.0,WNW,16.1,28.8,N/A,,Mostly Cloudy,290,2013-05-30 20:19:00
2:29 PM,66.2,30.2,26,29.68,10.0,NNW,29.9,38.0,N/A,,Scattered Clouds,330,2013-05-30 20:29:00
2:38 PM,64.4,30.2,28,29.68,10.0,NNW,24.2,31.1,N/A,,Scattered Clouds,340,2013-05-30 20:38:00
2:53 PM,69.1,30.9,24,29.58,10.0,North,12.7,23.0,N/A,,Clear,360,2013-05-30 20:53:00
3:53 PM,71.1,26.1,19,29.55,10.0,NNW,13.8,21.9,N/A,,Scattered Clouds,330,2013-05-30 21:53:00
4:53 PM,71.1,21.9,16,29.56,10.0,West,20.7,32.2,N/A,,Scattered Clouds,280,2013-05-30 22:53:00
5:53 PM,69.1,21.0,16,29.59,10.0,WNW,17.3,27.6,N/A,,Scattered Clouds,300,2013-05-30 23:53:00
6:53 PM,66.9,24.1,20,29.60,10.0,NW,11.5,-,N/A,,Scattered Clouds,310,2013-05-31 00:53:00
7:53 PM,64.9,21.9,19,29.63,10.0,WNW,17.3,29.9,N/A,,Partly Cloudy,290,2013-05-31 01:53:00
8:53 PM,62.1,23.0,22,29.65,10.0,West,12.7,-,N/A,,Clear,280,2013-05-31 02:53:00
9:53 PM,53.1,25.0,34,29.71,10.0,West,10.4,-,N/A,,Clear,260,2013-05-31 03:53:00
10:53 PM,54.0,27.0,35,29.70,10.0,West,12.7,-,N/A,,Clear,280,2013-05-31 04:53:00
11:53 PM,52.0,30.0,43,29.73,10.0,NW,8.1,-,N/A,,Clear,310,2013-05-31 05:53:00